Home   Weather   Medan   Past weeks

Flag for Indonesia Past Weather in Medan, North Sumatra, Indonesia — Yesterday and Last 2 Weeks

77 °F

Scattered clouds.

Feels Like: 78 °F
Forecast: 74 / 88 °F
Wind: 7 mph from Southeast

Location: Medan / Polonia

Current Time: Oct 26, 2016 at 9:26:48 AM

Latest Report: Oct 26, 2016 at 8:30 AM

Visibility: 5 mi

Pressure: 29.86 "Hg

Humidity: 94%

Dew Point: 75 °F

Location of MedanLocation

Past Weather in Medan — Graph


Medan Temperature Yesterday

Maximum temperature yesterday: 86 °F (at 12:30 PM)
Minimum temperature yesterday: 75 °F (at 5:00 AM)
Average temperature yesterday: 81 °F

High & Low Weather Summary for the Past Weeks

High90 °F (Oct 14, 1:30 PM)100% (Oct 11, 7:00 AM)29.89 "Hg (Oct 11, 7:00 AM)
Low75 °F (Oct 11, 9:00 PM)62% (Oct 22, 12:30 PM)29.65 "Hg (Oct 14, 4:00 PM)
Average81 °F87%29.77 "Hg
* Reported Oct 11 7:00 AM — Oct 26 7:30 AM, Medan, Weather by CustomWeather, © 2016

Note: Actual official high and low records may vary slightly from our data, if they occured in-between our weather recording intervals... More about our weather records


Medan Weather History for the Previous 24 Hours

Scroll right to see more
Time TempWeatherWind HumidityBarometerVisibility
7:30 AM
Wed, Oct 26
75 °FScattered clouds.5 mph100%29.83 "Hg4 mi
7:00 AM75 °FScattered clouds.5 mph100%29.83 "Hg2 mi
6:30 AM75 °FScattered clouds.3 mph100%29.80 "Hg3 mi
6:00 AM75 °FPassing clouds.5 mph100%29.80 "Hg3 mi
5:30 AM75 °FPassing clouds.3 mph94%29.80 "Hg3 mi
5:00 AM75 °FPassing clouds.3 mph100%29.77 "Hg3 mi
4:30 AM75 °FPassing clouds.No wind94%29.77 "Hg4 mi
4:00 AM75 °FPassing clouds.6 mph94%29.77 "Hg4 mi
3:30 AM75 °FLight rain. Passing clouds.3 mph94%29.77 "Hg4 mi
3:00 AM75 °FLight rain. Passing clouds.5 mph94%29.80 "Hg4 mi
2:30 AM75 °FLight rain. Passing clouds.5 mph94%29.80 "Hg4 mi
2:00 AM75 °FLight rain. Passing clouds.6 mph94%29.80 "Hg4 mi
1:30 AM75 °FLight rain. Passing clouds.5 mph94%29.80 "Hg4 mi
1:00 AM77 °FPassing clouds.5 mph89%29.83 "Hg4 mi
12:30 AM77 °FLight rain. Passing clouds.3 mph89%29.83 "Hg4 mi
12:00 AM77 °FLight rain. Passing clouds.5 mph89%29.83 "Hg4 mi
11:30 PM
Tue, Oct 25
77 °FPassing clouds.3 mph94%29.83 "Hg4 mi
11:00 PM77 °FLight rain. Passing clouds.6 mph89%29.83 "Hg4 mi
10:30 PM77 °FLight rain. Passing clouds.3 mph94%29.83 "Hg4 mi
10:00 PM77 °FPassing clouds.6 mph94%29.86 "Hg4 mi
9:30 PM77 °FPassing clouds.7 mph94%29.83 "Hg4 mi
9:00 PM79 °FPassing clouds.8 mph89%29.83 "Hg4 mi
8:30 PM81 °FLight rain. Passing clouds.9 mph89%29.80 "Hg4 mi
8:00 PM82 °FPassing clouds.3 mph84%29.80 "Hg4 mi
7:30 PM84 °FPassing clouds.5 mph79%29.77 "Hg4 mi
7:00 PM82 °FPassing clouds.7 mph79%29.74 "Hg4 mi
5:30 PM84 °FScattered clouds.6 mph74%29.71 "Hg4 mi
5:00 PM84 °FScattered clouds.6 mph74%29.71 "Hg4 mi
4:30 PM84 °FBroken clouds.6 mph74%29.71 "Hg4 mi
4:00 PM86 °FBroken clouds.6 mph75%29.71 "Hg4 mi
3:30 PM86 °FBroken clouds.6 mph70%29.71 "Hg4 mi
3:00 PM86 °FBroken clouds.7 mph70%29.71 "Hg5 mi
2:30 PM86 °FBroken clouds.8 mph75%29.71 "Hg5 mi
2:00 PM86 °FBroken clouds.5 mph75%29.74 "Hg5 mi
1:30 PM86 °FBroken clouds.5 mph70%29.77 "Hg5 mi
1:00 PM86 °FBroken clouds.6 mph75%29.77 "Hg5 mi
12:30 PM86 °FBroken clouds.5 mph75%29.80 "Hg5 mi
12:00 PM84 °FBroken clouds.6 mph79%29.80 "Hg5 mi
11:30 AM84 °FBroken clouds.5 mph79%29.80 "Hg5 mi
11:00 AM84 °FBroken clouds.5 mph74%29.83 "Hg4 mi
10:30 AM82 °FWarm.3 mph84%29.83 "Hg4 mi
10:00 AM82 °FBroken clouds.3 mph84%29.83 "Hg4 mi
9:30 AM81 °FBroken clouds.5 mph84%29.83 "Hg4 mi
9:00 AM79 °FBroken clouds.6 mph89%29.80 "Hg3 mi
Weather by CustomWeather, © 2016

See weather overviewHow to use our weather pages